STARLINK-5645 (55429 NORAD) Tracking and Keplerian Element Data

This shows tracking and keplerian element data for the satellite.

Feedback or suggestion? Click here.




ElementValue
Catalog55429
NameSTARLINK-5645
Epoch Orbit1517
Epoch Day127.25001157
Epoch Year2023
RAAN182.2013
Inclination69.9988
Eccentricity0.0003442
Argument of Perigee269.377
Mean Anonmoly96.7218
Mean Motion15.40706335
Decay Rate-0.00964004
L11 55429U 23014AQ 23127.25001157 -.00964004 00000+0 -25731-1 0 9994
L22 55429 69.9988 182.2013 0003442 269.3770 96.7218 15.40706335 15171



Live tracking and technical data element details for STARLINK-5645 (NORAD 55429). STARLINK-5645 can be tracked NOW for your location showing map with azimuth and elevation plus other details from your city location.







IsCatalogInMostPopularTable: catalog: 55429, numindb: 1
Update: records affected: 1



GetName: 55429 STARLINK-5645

Hit Count: updated at: Mon, 05 Jun 2023 19:40:38 GMT